Location: Bazugues
(43.4465°N, 0.3432°E)
Time: 15:22:23
(UTC+00:00)

Cosmos 1452 Rocket - Visible Passes

Search period start: 19 April 2026 00:00
Search period end: 29 April 2026 00:00
Orbit: 764 x 769 km, 74.1° (Epoch: 19 April)

Date Brightness Start Highest point End Pass type
(mag) Time Alt. Az. Time Alt. Az. Time Alt. Az.
19 Apr 4.7 01:09:53 38° N 01:09:53 38° N 01:13:17 10° NNE visible
20 Apr 4.9 00:32:51 35° NNE 00:32:51 35° NNE 00:35:49 10° NNE visible
20 Apr 5.6 02:13:04 15° NW 02:13:19 15° NW 02:16:14 10° NNW visible
20 Apr 5.3 23:55:48 26° NE 23:55:48 26° NE 23:58:09 10° NNE visible
21 Apr 5.2 01:36:00 23° NW 01:36:00 23° NW 01:39:32 10° N visible
21 Apr 5.7 23:18:43 17° NE 23:18:43 17° NE 23:20:13 10° NE visible
22 Apr 4.9 00:58:56 32° NNW 00:58:56 32° NNW 01:02:28 10° N visible
22 Apr 6.0 22:41:37 11° ENE 22:41:37 11° ENE 22:41:50 10° NE visible
23 Apr 4.8 00:21:49 38° N 00:21:49 38° N 00:25:09 10° NNE visible
23 Apr 4.9 23:44:42 35° NNE 23:44:42 35° NNE 23:47:39 10° NNE visible
24 Apr 5.7 01:24:54 16° NW 01:25:07 16° NW 01:28:14 10° NNW visible
24 Apr 5.1 23:07:32 26° NE 23:07:32 26° NE 23:09:58 10° NNE visible
25 Apr 5.3 00:47:44 24° NW 00:47:44 24° NW 00:51:28 10° N visible
25 Apr 5.5 22:30:21 18° NE 22:30:21 18° NE 22:32:00 10° NE visible
26 Apr 4.8 00:10:32 35° NW 00:10:32 35° NW 00:14:21 10° N visible
26 Apr 5.8 21:53:07 11° ENE 21:53:07 11° ENE 21:53:30 10° ENE visible
26 Apr 4.5 23:33:18 44° N 23:33:18 44° N 23:37:01 10° NNE visible
27 Apr 6.1 01:14:04 10° WNW 01:14:55 10° NW 01:15:47 10° NW visible
27 Apr 4.4 22:56:02 42° NNE 22:56:02 42° NNE 22:59:30 10° NNE visible
28 Apr 5.7 00:36:13 16° WNW 00:36:55 17° NW 00:40:13 10° NNW visible
28 Apr 4.7 22:18:44 31° NE 22:18:44 31° NE 22:21:47 10° NNE visible
